Fort Hood, TX

2:06 PM CST on November 15, 2019 (GMT -0600)
Killeen-Fort Hood Regional

Weather History for KGRK - September, 2019

Change the Weather History Date:

Thursday, September 19, 2019

  Actual Average Record
Temperature  
Mean Temperature 82 °F -  
Max Temperature 95 °F 85 °F 96 °F (1997)
Min Temperature 71 °F 65 °F 57 °F (2006)
Cooling Degree Days 18    
Growing Degree Days 32 (Base 50)    
Moisture  
Dew Point 70 °F    
Average Humidity 70    
Maximum Humidity 90    
Minimum Humidity 40    
Precipitation  
Precipitation 0.00 in - - ()
Sea Level Pressure  
Sea Level Pressure 29.84 in    
Wind  
Wind Speed 3 mph (ESE)    
Max Wind Speed 14 mph    
Max Gust Speed -    
Visibility 10 miles    
Events      
Averages and records for this station are not official NWS values.
T = Trace of Precipitation, MM = Missing Value Source: NWS Daily Summary

Daily Weather History Graph

Daily Weather History Graph

Search for Another Location

Airport or City:

Astronomy

Sep. 19, 2019 Rise Set
Actual Time 7:17 AM CDT 7:32 PM CDT
Civil Twilight 6:53 AM CDT 7:56 PM CDT
Nautical Twilight 6:25 AM CDT 8:24 PM CDT
Astronomical Twilight 5:56 AM CDT 8:52 PM CDT
Moon 11:01 PM CDT (9/19) 12:03 PM CDT (9/19)
Length of Visible Light 13h 02m
Length of Day
12h 14m
Waning Gibbous, 74% of the Moon is Illuminated
Sep 19
Waning Gibbous
Sep 21
Last Quarter
Sep 28
New
Oct 5
First Quarter
Oct 13
Full

Hourly Weather History & Observations

Time (CDT) Temp. Heat Index Dew Point Humidity Pressure Visibility Wind Dir Wind Speed Gust Speed Precip Events Conditions
12:58 AM 77.7 °F - 68.4 °F 73% 29.87 in 10.0 mi Calm Calm - N/A   Clear
1:58 AM 77.9 °F - 68.4 °F 72% 29.86 in 10.0 mi Calm Calm - N/A   Clear
3:58 AM 73.6 °F - 67.8 °F 82% 29.85 in 10.0 mi Calm Calm - N/A   Clear
4:58 AM 72.3 °F - 67.8 °F 86% 29.84 in 10.0 mi Calm Calm - N/A   Clear
5:58 AM 72.5 °F - 68.4 °F 87% 29.83 in 10.0 mi NW 4.6 mph - N/A   Clear
6:58 AM 71.1 °F - 68.0 °F 90% 29.84 in 10.0 mi Calm Calm - N/A   Clear
7:58 AM 71.4 °F - 68.4 °F 90% 29.86 in 10.0 mi NW 3.5 mph - N/A   Clear
8:58 AM 75.7 °F - 70.0 °F 82% 29.87 in 10.0 mi NNE 5.8 mph - N/A   Clear
9:38 AM 77.0 °F - 69.8 °F 78% 29.88 in 9.0 mi ENE 4.6 mph - N/A   Mostly Cloudy
9:53 AM 77.0 °F - 69.8 °F 78% 29.88 in 10.0 mi ENE 3.5 mph - N/A   Scattered Clouds
9:58 AM 77.9 °F - 70.2 °F 77% 29.88 in 10.0 mi Calm Calm - N/A   Scattered Clouds
10:08 AM 78.8 °F - 69.8 °F 74% 29.88 in 10.0 mi Calm Calm - N/A   Mostly Cloudy
10:18 AM 80.6 °F 84.6 °F 71.6 °F 74% 29.88 in 10.0 mi Calm Calm - N/A   Mostly Cloudy
10:23 AM 80.6 °F 83.9 °F 69.8 °F 70% 29.88 in 10.0 mi Calm Calm - N/A   Mostly Cloudy
10:33 AM 80.6 °F 83.9 °F 69.8 °F 70% 29.88 in 10.0 mi Calm Calm - N/A   Mostly Cloudy
10:38 AM 80.6 °F 83.9 °F 69.8 °F 70% 29.88 in 10.0 mi Calm Calm - N/A   Scattered Clouds
10:58 AM 82.2 °F 86.0 °F 70.0 °F 66% 29.88 in 10.0 mi Calm Calm - N/A   Clear
11:58 AM 85.6 °F 91.1 °F 71.1 °F 62% 29.87 in 10.0 mi Calm Calm - N/A   Clear
12:58 PM 88.9 °F 93.8 °F 69.8 °F 53% 29.84 in 10.0 mi SE 4.6 mph - N/A   Clear
1:58 PM 91.4 °F 96.3 °F 69.3 °F 48% 29.81 in 10.0 mi East 4.6 mph - N/A   Clear
2:58 PM 93.6 °F 99.0 °F 69.1 °F 45% 29.80 in 10.0 mi NNE 5.8 mph - N/A   Scattered Clouds
3:58 PM 93.0 °F 96.9 °F 67.3 °F 43% 29.77 in 10.0 mi North 8.1 mph - N/A   Clear
4:58 PM 94.1 °F 97.3 °F 66.2 °F 40% 29.77 in 10.0 mi East 5.8 mph - N/A   Mostly Cloudy
5:58 PM 88.5 °F 94.0 °F 70.3 °F 55% 29.77 in 10.0 mi SSE 10.4 mph - N/A   Mostly Cloudy
6:58 PM 87.4 °F 92.7 °F 70.3 °F 57% 29.77 in 10.0 mi ESE 6.9 mph - N/A   Partly Cloudy
7:48 PM 87.8 °F 92.6 °F 69.8 °F 55% 29.79 in 10.0 mi East 10.4 mph - N/A   Mostly Cloudy
8:18 PM 84.2 °F 88.4 °F 69.8 °F 62% 29.80 in 10.0 mi ESE 11.5 mph - N/A   Overcast
8:58 PM 80.2 °F 83.7 °F 71.1 °F 73% 29.82 in 10.0 mi SE 13.8 mph - N/A   Partly Cloudy
9:58 PM 77.4 °F - 70.7 °F 80% 29.84 in 10.0 mi SE 9.2 mph - N/A   Clear
10:58 PM 76.6 °F - 70.3 °F 81% 29.86 in 10.0 mi SE 10.4 mph - N/A   Clear
11:33 PM 77.0 °F - 71.6 °F 83% 29.86 in 10.0 mi SE 10.4 mph - N/A   Mostly Cloudy
11:38 PM 77.0 °F - 71.6 °F 83% 29.87 in 10.0 mi SE 9.2 mph - N/A   Mostly Cloudy
11:58 PM 76.8 °F - 71.6 °F 84% 29.87 in 10.0 mi SSE 10.4 mph - N/A   Overcast